| time (UTC) | temp F | wind direction | speed MPH | gust MPH | rain 1hr in | rain 24hr in | rain mn in | humidity % | barometer mb |
| 20260507192006 | 59 | 131 | 0.0 | 0.0 | 0.00 | 0.00 | 0.00 | 63 | 1014.3 |
| 20260507191006 | 59 | 131 | 0.0 | 0.0 | 0.00 | 0.00 | 0.00 | 63 | 1014.0 |
| 20260507190006 | 61 | 131 | 0.0 | 0.0 | 0.00 | 0.00 | 0.00 | 58 | 1013.8 |
| 20260507185006 | 61 | 131 | 0.0 | 0.0 | 0.00 | 0.00 | 0.00 | 58 | 1013.6 |
| 20260507184007 | 61 | 131 | 0.0 | 0.0 | 0.00 | 0.00 | 0.00 | 57 | 1013.3 |
| 20260507183007 | 63 | 131 | 0.0 | 0.0 | 0.00 | 0.00 | 0.00 | 53 | 1013.0 |
| 20260507182007 | 64 | 131 | 0.0 | 0.0 | 0.00 | 0.00 | 0.00 | 48 | 1012.8 |
| 20260507181007 | 64 | 131 | 0.0 | 0.0 | 0.00 | 0.00 | 0.00 | 46 | 1012.7 |
| 20260507180007 | 66 | 131 | 0.0 | 0.0 | 0.00 | 0.00 | 0.00 | 44 | 1012.5 |
| 20260507175007 | 66 | 131 | 0.0 | 0.0 | 0.00 | 0.00 | 0.00 | 43 | 1012.4 |
| 20260507174008 | 68 | 131 | 0.0 | 0.0 | 0.00 | 0.00 | 0.00 | 40 | 1012.2 |
| 20260507173008 | 69 | 131 | 0.0 | 0.0 | 0.00 | 0.00 | 0.00 | 38 | 1012.1 |
| 20260507172008 | 69 | 131 | 0.0 | 0.0 | 0.00 | 0.00 | 0.00 | 37 | 1012.0 |
| 20260507171008 | 70 | 131 | 0.0 | 0.0 | 0.00 | 0.00 | 0.00 | 38 | 1011.9 |
| 20260507170009 | 70 | 131 | 0.0 | 0.0 | 0.00 | 0.00 | 0.00 | 39 | 1011.9 |
| 20260507165010 | 71 | 131 | 0.0 | 0.0 | 0.00 | 0.00 | 0.00 | 38 | 1011.9 |
| 20260507164009 | 70 | 131 | 0.0 | 0.0 | 0.00 | 0.00 | 0.00 | 41 | 1012.0 |
| 20260507163010 | 70 | 131 | 0.0 | 0.0 | 0.00 | 0.00 | 0.00 | 39 | 1012.0 |
| 20260507162010 | 70 | 131 | 0.0 | 0.0 | 0.00 | 0.00 | 0.00 | 39 | 1012.0 |
| 20260507161010 | 69 | 131 | 0.0 | 0.0 | 0.00 | 0.00 | 0.00 | 39 | 1011.9 |
| 20260507160010 | 70 | 131 | 0.0 | 0.0 | 0.00 | 0.00 | 0.00 | 39 | 1011.9 |
| 20260507155011 | 70 | 131 | 0.0 | 0.0 | 0.00 | 0.00 | 0.00 | 35 | 1011.8 |
| 20260507154011 | 70 | 131 | 0.0 | 0.0 | 0.00 | 0.00 | 0.00 | 34 | 1011.8 |
| 20260507153011 | 70 | 131 | 0.0 | 0.0 | 0.00 | 0.00 | 0.00 | 33 | 1011.6 |
| 20260507152012 | 73 | 131 | 0.0 | 0.0 | 0.00 | 0.00 | 0.00 | 32 | 1011.6 |
| 20260507151012 | 73 | 131 | 0.0 | 0.0 | 0.00 | 0.00 | 0.00 | 30 | 1011.5 |
| 20260507150013 | 73 | 131 | 0.0 | 0.0 | 0.00 | 0.00 | 0.00 | 29 | 1011.5 |
| 20260507145013 | 74 | 131 | 0.0 | 0.0 | 0.00 | 0.00 | 0.00 | 29 | 1011.4 |
| 20260507144013 | 72 | 131 | 0.0 | 0.0 | 0.00 | 0.00 | 0.00 | 31 | 1011.5 |
| 20260507143014 | 73 | 131 | 0.0 | 0.0 | 0.00 | 0.00 | 0.00 | 30 | 1011.6 |
| 20260507142014 | 73 | 131 | 0.0 | 0.0 | 0.00 | 0.00 | 0.00 | 29 | 1011.6 |
| 20260507141014 | 73 | 131 | 0.0 | 0.0 | 0.00 | 0.00 | 0.00 | 31 | 1011.7 |
| 20260507140014 | 73 | 131 | 0.0 | 0.0 | 0.00 | 0.00 | 0.00 | 31 | 1011.8 |
| 20260507135004 | 71 | 131 | 0.0 | 0.0 | 0.00 | 0.00 | 0.00 | 31 | 1011.8 |
| 20260507134004 | 73 | 131 | 0.0 | 0.0 | 0.00 | 0.00 | 0.00 | 32 | 1011.9 |
| 20260507133005 | 72 | 131 | 0.0 | 0.0 | 0.00 | 0.00 | 0.00 | 33 | 1012.0 |
| 20260507132005 | 74 | 131 | 0.0 | 0.0 | 0.00 | 0.00 | 0.00 | 31 | 1012.0 |
| 20260507131005 | 74 | 131 | 0.0 | 0.0 | 0.00 | 0.00 | 0.00 | 33 | 1012.1 |
| 20260507130005 | 72 | 131 | 0.0 | 0.0 | 0.00 | 0.00 | 0.00 | 33 | 1012.2 |
| 20260507125005 | 73 | 131 | 0.0 | 0.0 | 0.00 | 0.00 | 0.00 | 31 | 1012.2 |
| 20260507124005 | 73 | 131 | 0.0 | 0.0 | 0.00 | 0.00 | 0.00 | 33 | 1012.2 |
| 20260507123010 | 73 | 131 | 0.0 | 0.0 | 0.00 | 0.00 | 0.00 | 33 | 1012.3 |
| 20260507122005 | 73 | 131 | 0.0 | 0.0 | 0.00 | 0.00 | 0.00 | 32 | 1012.4 |
| 20260507121005 | 71 | 131 | 0.0 | 0.0 | 0.00 | 0.00 | 0.00 | 32 | 1012.5 |
| 20260507120006 | 72 | 131 | 0.0 | 0.0 | 0.00 | 0.00 | 0.00 | 31 | 1012.6 |
| 20260507115005 | 71 | 131 | 0.0 | 0.0 | 0.00 | 0.00 | 0.00 | 33 | 1012.7 |
| 20260507114006 | 72 | 131 | 0.0 | 0.0 | 0.00 | 0.00 | 0.00 | 33 | 1012.8 |
| 20260507113007 | 69 | 131 | 0.0 | 0.0 | 0.00 | 0.00 | 0.00 | 34 | 1012.9 |
| 20260507112007 | 70 | 131 | 0.0 | 0.0 | 0.00 | 0.00 | 0.00 | 35 | 1013.0 |
| 20260507111007 | 70 | 131 | 0.0 | 0.0 | 0.00 | 0.00 | 0.00 | 39 | 1013.2 |
| 20260507110007 | 70 | 131 | 0.0 | 0.0 | 0.00 | 0.00 | 0.00 | 37 | 1013.2 |
| 20260507105008 | 70 | 131 | 0.0 | 0.0 | 0.00 | 0.00 | 0.00 | 39 | 1013.3 |
| 20260507104009 | 67 | 131 | 0.0 | 0.0 | 0.00 | 0.00 | 0.00 | 39 | 1013.4 |
| 20260507103009 | 68 | 131 | 0.0 | 0.0 | 0.00 | 0.00 | 0.00 | 41 | 1013.6 |
| 20260507102009 | 67 | 131 | 0.0 | 0.0 | 0.00 | 0.00 | 0.00 | 42 | 1013.7 |
| 20260507101010 | 67 | 131 | 0.0 | 0.0 | 0.00 | 0.00 | 0.00 | 42 | 1013.7 |
| 20260507100010 | 65 | 131 | 0.0 | 0.0 | 0.00 | 0.00 | 0.00 | 41 | 1013.8 |
| 20260507095010 | 67 | 131 | 0.0 | 0.0 | 0.00 | 0.00 | 0.00 | 40 | 1013.9 |
| 20260507094011 | 66 | 131 | 0.0 | 0.0 | 0.00 | 0.00 | 0.00 | 41 | 1014.0 |
| 20260507093012 | 66 | 131 | 0.0 | 0.0 | 0.00 | 0.00 | 0.00 | 40 | 1014.1 |
| 20260507092012 | 66 | 131 | 0.0 | 0.0 | 0.00 | 0.00 | 0.00 | 42 | 1014.2 |
| 20260507091013 | 65 | 131 | 0.0 | 0.0 | 0.00 | 0.00 | 0.00 | 45 | 1014.3 |
| 20260507090013 | 65 | 131 | 0.0 | 0.0 | 0.00 | 0.00 | 0.00 | 45 | 1014.3 |
| 20260507085014 | 65 | 131 | 0.0 | 0.0 | 0.00 | 0.00 | 0.00 | 49 | 1014.4 |
| 20260507084004 | 63 | 131 | 0.0 | 0.0 | 0.00 | 0.00 | 0.00 | 47 | 1014.6 |
| 20260507083005 | 62 | 131 | 0.0 | 0.0 | 0.00 | 0.00 | 0.00 | 46 | 1014.6 |
| 20260507082014 | 61 | 131 | 0.0 | 0.0 | 0.00 | 0.00 | 0.00 | 46 | 1014.7 |
| 20260507081014 | 63 | 131 | 0.0 | 0.0 | 0.00 | 0.00 | 0.00 | 52 | 1014.7 |
| 20260507080014 | 63 | 131 | 0.0 | 0.0 | 0.00 | 0.00 | 0.00 | 49 | 1014.8 |
| 20260507075004 | 60 | 131 | 0.0 | 0.0 | 0.00 | 0.00 | 0.00 | 47 | 1014.8 |
| 20260507074004 | 61 | 131 | 0.0 | 0.0 | 0.00 | 0.00 | 0.00 | 48 | 1014.9 |
| 20260507073004 | 60 | 131 | 0.0 | 0.0 | 0.00 | 0.00 | 0.00 | 56 | 1015.0 |
| 20260507072006 | 61 | 131 | 0.0 | 0.0 | 0.00 | 0.00 | 0.00 | 56 | 1015.0 |
| 20260507071005 | 59 | 131 | 0.0 | 0.0 | 0.00 | 0.00 | 0.00 | 58 | 1014.9 |
| 20260507070010 | 60 | 131 | 0.0 | 0.0 | 0.00 | 0.00 | 0.00 | 58 | 1014.9 |
| 20260507065006 | 57 | 131 | 0.0 | 0.0 | 0.00 | 0.00 | 0.00 | 64 | 1015.0 |
| 20260507064007 | 59 | 131 | 0.0 | 0.0 | 0.00 | 0.00 | 0.00 | 61 | 1015.0 |
| 20260507063007 | 59 | 131 | 0.0 | 0.0 | 0.00 | 0.00 | 0.00 | 67 | 1014.9 |
| 20260507062008 | 58 | 131 | 0.0 | 0.0 | 0.00 | 0.00 | 0.00 | 65 | 1014.9 |
| 20260507061008 | 57 | 131 | 0.0 | 0.0 | 0.00 | 0.00 | 0.00 | 68 | 1015.1 |
| 20260507060008 | 56 | 131 | 0.0 | 0.0 | 0.00 | 0.00 | 0.00 | 71 | 1015.1 |
| 20260507055008 | 55 | 131 | 0.0 | 0.0 | 0.00 | 0.00 | 0.00 | 75 | 1015.2 |
| 20260507054009 | 56 | 131 | 0.0 | 0.0 | 0.00 | 0.00 | 0.00 | 73 | 1015.1 |
| 20260507053009 | 57 | 131 | 0.0 | 0.0 | 0.00 | 0.00 | 0.00 | 72 | 1015.0 |
| 20260507052009 | 56 | 131 | 0.0 | 0.0 | 0.00 | 0.00 | 0.00 | 76 | 1015.0 |
| 20260507051010 | 54 | 131 | 0.0 | 0.0 | 0.00 | 0.00 | 0.00 | 84 | 1015.0 |
| 20260507050010 | 50 | 131 | 0.0 | 0.0 | 0.00 | 0.00 | 0.00 | 10 | 1014.9 |
| 20260507045011 | 48 | 131 | 0.0 | 0.0 | 0.00 | 0.00 | 0.00 | 10 | 1015.0 |
| 20260507044011 | 50 | 131 | 0.0 | 0.0 | 0.00 | 0.00 | 0.00 | 99 | 1014.9 |
| 20260507043011 | 49 | 131 | 0.0 | 0.0 | 0.00 | 0.00 | 0.00 | 10 | 1014.8 |
| 20260507042012 | 50 | 131 | 0.0 | 0.0 | 0.00 | 0.00 | 0.00 | 98 | 1014.8 |
| 20260507041012 | 50 | 131 | 0.0 | 0.0 | 0.00 | 0.00 | 0.00 | 98 | 1014.9 |
| 20260507040013 | 50 | 131 | 0.0 | 0.0 | 0.00 | 0.00 | 0.00 | 10 | 1014.9 |
| 20260507035013 | 49 | 131 | 0.0 | 0.0 | 0.00 | 0.00 | 0.00 | 10 | 1015.0 |
| 20260507034014 | 48 | 131 | 0.0 | 0.0 | 0.00 | 0.00 | 0.00 | 10 | 1015.1 |
| 20260507033014 | 49 | 131 | 0.0 | 0.0 | 0.00 | 0.00 | 0.00 | 10 | 1015.4 |
| 20260507032004 | 51 | 131 | 0.0 | 0.0 | 0.00 | 0.00 | 0.00 | 97 | 1015.4 |
| 20260507031005 | 51 | 131 | 0.0 | 0.0 | 0.00 | 0.00 | 0.00 | 97 | 1015.3 |
| 20260507030005 | 51 | 131 | 0.0 | 0.0 | 0.00 | 0.00 | 0.00 | 96 | 1015.2 |
| 20260507025005 | 50 | 131 | 0.0 | 0.0 | 0.00 | 0.00 | 0.00 | 10 | 1015.0 |
| 20260507024005 | 51 | 131 | 0.0 | 0.0 | 0.00 | 0.00 | 0.00 | 96 | 1014.9 |
| 20260507023005 | 51 | 131 | 0.0 | 0.0 | 0.00 | 0.00 | 0.00 | 96 | 1014.8 |
| 20260507022005 | 51 | 131 | 0.0 | 0.0 | 0.00 | 0.00 | 0.00 | 94 | 1014.8 |
| 20260507021005 | 51 | 131 | 0.0 | 0.0 | 0.00 | 0.00 | 0.00 | 94 | 1014.8 |
| 20260507020006 | 51 | 131 | 0.0 | 0.0 | 0.00 | 0.00 | 0.00 | 97 | 1014.7 |
| 20260507015007 | 51 | 131 | 0.0 | 0.0 | 0.00 | 0.00 | 0.00 | 96 | 1014.6 |
| 20260507014007 | 51 | 131 | 0.0 | 0.0 | 0.00 | 0.00 | 0.00 | 95 | 1014.4 |
| 20260507013007 | 51 | 131 | 0.0 | 0.0 | 0.00 | 0.00 | 0.00 | 98 | 1014.3 |
| 20260507012008 | 51 | 131 | 0.0 | 0.0 | 0.00 | 0.00 | 0.00 | 98 | 1014.5 |
| 20260507011008 | 51 | 131 | 0.0 | 0.0 | 0.00 | 0.00 | 0.00 | 97 | 1014.5 |
| 20260507010009 | 51 | 131 | 0.0 | 0.0 | 0.00 | 0.00 | 0.00 | 97 | 1014.6 |
| 20260507005009 | 51 | 131 | 0.0 | 0.0 | 0.00 | 0.00 | 0.00 | 96 | 1014.6 |
| 20260507004010 | 51 | 131 | 0.0 | 0.0 | 0.00 | 0.00 | 0.00 | 97 | 1014.8 |
| 20260507003010 | 51 | 131 | 0.0 | 0.0 | 0.00 | 0.00 | 0.00 | 98 | 1015.1 |
| 20260507002010 | 51 | 131 | 0.0 | 0.0 | 0.00 | 0.00 | 0.00 | 95 | 1014.8 |
| 20260507001011 | 51 | 131 | 0.0 | 0.0 | 0.00 | 0.00 | 0.00 | 94 | 1014.8 |
| 20260507000012 | 51 | 131 | 0.0 | 0.0 | 0.00 | 0.00 | 0.00 | 97 | 1014.9 |
| 20260506235012 | 50 | 131 | 0.0 | 0.0 | 0.00 | 0.00 | 0.00 | 97 | 1014.7 |
| 20260506234013 | 51 | 131 | 0.0 | 0.0 | 0.00 | 0.00 | 0.00 | 93 | 1014.6 |
| 20260506233014 | 51 | 131 | 0.0 | 0.0 | 0.00 | 0.00 | 0.00 | 92 | 1014.3 |
| 20260506232014 | 50 | 131 | 0.0 | 0.0 | 0.00 | 0.00 | 0.00 | 98 | 1014.0 |
| 20260506231014 | 49 | 131 | 0.0 | 0.0 | 0.00 | 0.00 | 0.00 | 10 | 1013.8 |
| 20260506230014 | 50 | 131 | 0.0 | 0.0 | 0.00 | 0.00 | 0.00 | 99 | 1013.7 |
| 20260506225015 | 49 | 145 | 0.0 | 0.0 | 0.00 | 0.00 | 0.00 | 10 | 1014.0 |
| 20260506224005 | 48 | 145 | 0.0 | 0.0 | 0.00 | 0.00 | 0.00 | 10 | 1014.2 |
| 20260506223005 | 50 | 145 | 0.0 | 0.0 | 0.00 | 0.00 | 0.00 | 94 | 1014.3 |
| 20260506222006 | 50 | 145 | 0.0 | 0.0 | 0.00 | 0.00 | 0.00 | 96 | 1014.2 |
| 20260506221006 | 50 | 145 | 0.0 | 0.0 | 0.00 | 0.00 | 0.00 | 98 | 1014.2 |
| 20260506220006 | 50 | 145 | 0.0 | 0.0 | 0.00 | 0.00 | 0.00 | 97 | 1014.2 |
| 20260506215007 | 52 | 145 | 0.0 | 0.0 | 0.00 | 0.00 | 0.00 | 92 | 1014.2 |
| 20260506214007 | 52 | 145 | 0.0 | 0.0 | 0.00 | 0.00 | 0.00 | 92 | 1014.3 |
| 20260506213008 | 51 | 145 | 0.0 | 0.0 | 0.00 | 0.00 | 0.00 | 94 | 1014.3 |
| 20260506212009 | 52 | 145 | 0.0 | 0.0 | 0.00 | 0.00 | 0.00 | 92 | 1014.5 |
| 20260506211009 | 51 | 145 | 0.0 | 0.0 | 0.00 | 0.00 | 0.00 | 94 | 1014.7 |
| 20260506210010 | 51 | 145 | 0.0 | 0.0 | 0.00 | 0.00 | 0.00 | 94 | 1014.8 |
| 20260506205011 | 52 | 145 | 0.0 | 0.0 | 0.00 | 0.00 | 0.00 | 96 | 1014.8 |
| 20260506204011 | 50 | 145 | 0.0 | 0.0 | 0.00 | 0.00 | 0.00 | 99 | 1014.8 |
| 20260506203011 | 52 | 145 | 0.0 | 0.0 | 0.00 | 0.00 | 0.00 | 92 | 1014.4 |
| 20260506202012 | 51 | 145 | 0.0 | 0.0 | 0.00 | 0.00 | 0.00 | 94 | 1013.8 |
| 20260506201012 | 52 | 145 | 0.0 | 0.0 | 0.00 | 0.00 | 0.00 | 91 | 1013.8 |
| 20260506200012 | 51 | 145 | 0.0 | 0.0 | 0.00 | 0.00 | 0.00 | 94 | 1013.7 |
| 20260506195012 | 51 | 145 | 0.0 | 0.0 | 0.00 | 0.00 | 0.00 | 95 | 1013.6 |
| 20260506194013 | 51 | 145 | 0.0 | 0.0 | 0.00 | 0.00 | 0.00 | 95 | 1013.6 |
| 20260506193013 | 51 | 145 | 0.0 | 0.0 | 0.00 | 0.00 | 0.00 | 93 | 1013.4 |